917  
ASUS41 KCLE 201212  
RWRCLE  
OHIO REGIONAL WEATHER ROUNDUP  
NATIONAL WEATHER SERVICE WILMINGTON, OH  
700 AM EST THU FEB 20 2020  
 
NOTE: "FAIR" INDICATES FEW OR NO CLOUDS BELOW 12,000 FEET WITH NO  
SIGNIFICANT WEATHER AND/OR S TO VISIBILITY
.  
 
OHZ001>008-015>018-024>027-034-035-043-044-201300-  
NORTHWEST OHIO  
 
CITY SKY/WX TMP DP RH WIND PRES REMARKS
 
DEFIANCE CLOUDY 20 8 60 N7 30.59R WCI 11  
FINDLAY CLOUDY 20 9 62 N14 30.54S WCI 7  
TOLEDO EXPRESS CLOUDY 19 4 51 NW12 30.57R WCI 7  
TOLEDO EXEC CLOUDY 19 8 62 NW9 30.58R WCI 8  
LIMA CLOUDY 20 11 68 N9 30.54R WCI 9  

 
 
OHZ009>014-019>023-028>033-038-089-201300-  
NORTHEAST OHIO  
 
CITY SKY/WX TMP DP RH WIND PRES REMARKS
 
CLE-HOPKINS CLOUDY 24 11 57 N9 30.53R WCI 14  
CLE-LAKEFRONT CLOUDY 24 10 55 NW12 30.52R WCI 13  
CUY CO. ARPT CLOUDY 21 12 68 NW8 30.49F WCI 12  
LORAIN-ELYRIA CLOUDY 22 8 55 N9 30.52R WCI 12  
ASHTABULA CLOUDY 22 13 68 NW6 30.48R WCI 14  
AKRON-CANTON MOCLDY 23 13 65 N8 30.46S WCI 14  
WOOSTER CLOUDY 21 12 68 N10 30.48R WCI 10  
MANSFIELD CLOUDY 21 12 68 N9 30.48R WCI 11  
YOUNGSTOWN CLOUDY 23 13 65 N10 30.45R WCI 12  

 
 
OHZ042-051>053-060>062-070>072-077>081-201300-  
SOUTHWEST OHIO  
 
CITY SKY/WX TMP DP RH WIND PRES REMARKS
 
CINC-COVINGTON CLOUDY 28 20 71 N13 30.49R WCI 17  
CINC-LUNKEN FAIR 29 20 69 N12 30.53R WCI 19  
HAMILTON FAIR 26 17 68 N7 30.54R WCI 18  
DAYTON CLOUDY 23 12 62 N12 30.52R WCI 12  
WRIGHT-PAT AFB CLOUDY 24 9 53 N8 30.51R WCI 14  
DAYTON GENERAL FAIR 25 15 66 N9 30.49R WCI 15  
WILMINGTON CLOUDY 25 17 72 NE10 30.49R WCI 15  

 
 
OHZ036-037-039>041-045>050-054>059-063>069-073>076-082>088-201300-  
CENTRAL AND SOUTHEAST OHIO  
 
CITY SKY/WX TMP DP RH WIND PRES REMARKS
 
COLUMBUS CLOUDY 25 12 58 N13 30.50R WCI 14  
OSU AIRPORT FAIR 23 12 62 N13 30.50R WCI 11  
BOLTON FIELD FAIR 24 16 72 N10 30.51R WCI 13  
RICKENBACK AFB FAIR 25 16 67 N8 30.51R WCI 16  
NEWARK FAIR 27 17 66 N5 30.48S WCI 22  
MARION MOCLDY 20 9 62 N12 30.52R WCI 8  
LANCASTER MOCLDY 26 18 71 N6 30.50R WCI 19  
ZANESVILLE CLOUDY 25 17 72 N3 30.48R  
NEW PHILLY MOCLDY 24 14 65 N8 30.48S WCI 15  

 
 
 
CLICK HERE TO GO TO PREVIOUS BULLETINS.

The Nexlab OH Page
The Nexlab PA Page Main Text Page